Regional Weather Roundup
Issued by NWS

Home | Current Version | Previous Version | Graphics & Text | Print | Product List | Glossary On
Versions: 1 2 3 4 5 6 7 8 9 10 11 12 13 14 15 16 17 18 19 20 21 22 23 24 25 26 27 28 29 30 31 32 33 34 35 36 37 38 39 40 41 42 43 44 45 46 47 48 49 50
000
ASUS45 KCYS 172110
RWRWY

WYOMING REGIONAL WEATHER ROUNDUP
NATIONAL WEATHER SERVICE CHEYENNE WY
200 PM MST WED JAN 17 2018

NOTE:  "FAIR" INDICATES FEW OR NO CLOUDS BELOW 12,000 FEET
WITH NO SIGNIFICANT WEATHER AND/OR OBSTRUCTIONS TO VISIBILITY.

WYZ001-172200-
YELLOWSTONE NATIONAL PARK

CITY           SKY/WX    TMP DP  RH WIND       PRES   REMARKS
LK YELLOWSTONE   N/A     25  19  78 CALM      30.33F
W YELLOWSTONE  NOT AVBL

$$
WYZ002>013-054>058-071-098>099-172200-
NORTHERN WYOMING

CITY           SKY/WX    TMP DP  RH WIND       PRES   REMARKS
JACKSON        FAIR      31  16  54 N3        30.36F
CODY           FAIR      25  16  68 CALM      30.23F
GREYBULL       FAIR      22  10  60 N3        30.28F
WORLAND        FAIR      23  13  65 NW3       30.26F
SHERIDAN       FAIR      43  20  39 S6        30.18F
BUFFALO        FAIR      41  17  38 S15       30.20F
GILLETTE       FAIR      41  23  48 SW10      30.22F
HULETT         FAIR      37  19  48 SW9       30.22F WCI  31
NEWCASTLE      FAIR      37  19  48 NW9       30.26S WCI  31

$$
WYZ014>020-022>026-101>103-172200-
CENTRAL WYOMING

CITY           SKY/WX    TMP DP  RH WIND       PRES   REMARKS
BIG PINEY      FAIR      39  19  44 VRB5      30.32F
PINEDALE       FAIR      32  19  59 SE3       30.34F
DUBOIS         FAIR      41  14  33 W3        30.24F
LANDER         FAIR      30  20  66 CALM      30.27F
RIVERTON       FAIR      26  14  60 E6        30.29F WCI  19
CASPER         FAIR      43  15  32 SW23      30.27F
DOUGLAS        FAIR      47  22  37 NW8       30.26F

$$
WYZ021-027>030-104>119-172200-
SOUTHERN WYOMING

CITY           SKY/WX    TMP DP  RH WIND       PRES   REMARKS
EVANSTON       FAIR      40  27  59 S9        30.34F WCI  34
FORT BRIDGER   FAIR      45  25  45 W12       30.36F
ROCK SPRINGS   FAIR      39  21  48 W13       30.33F WCI  31
DIXON            N/A     39   8  27 W5        30.37F
RAWLINS        FAIR      39  15  37 SW12      30.32F WCI  32
SARATOGA       FAIR      41  14  33 W14G22    30.32F
LARAMIE        FAIR      39  13  34 N8        30.27F WCI  33
CHEYENNE       FAIR      45  12  26 NW20      30.25F
TORRINGTON     FAIR      47  27  45 N6        30.25S

$$



USA.gov is the U.S. government's official web portal to all federal, state and local government web resources and services.